Year,Month,Day,Hour,Minute,Value (Times are PST for temperature in C)
2018,04,18,00,00,4.00
2018,04,18,00,01,4.00
2018,04,18,00,02,3.90
2018,04,18,00,03,3.90
2018,04,18,00,04,3.90
2018,04,18,00,05,3.90
2018,04,18,00,06,3.90
2018,04,18,00,07,3.90
2018,04,18,00,08,3.90
2018,04,18,00,09,3.90
2018,04,18,00,10,3.90
2018,04,18,00,11,3.90
2018,04,18,00,12,3.90
2018,04,18,00,13,3.90
2018,04,18,00,14,3.90
2018,04,18,00,15,3.90
2018,04,18,00,16,3.90
2018,04,18,00,17,3.90
2018,04,18,00,18,3.80
2018,04,18,00,19,3.80
2018,04,18,00,20,3.80
2018,04,18,00,21,3.80
2018,04,18,00,22,3.80
2018,04,18,00,23,3.80
2018,04,18,00,24,3.80
2018,04,18,00,25,3.80
2018,04,18,00,26,3.80
2018,04,18,00,27,3.80
2018,04,18,00,28,3.80
2018,04,18,00,29,3.70
2018,04,18,00,30,3.70
2018,04,18,00,31,3.70
2018,04,18,00,32,3.70
2018,04,18,00,33,3.70
2018,04,18,00,34,3.70
2018,04,18,00,35,3.70
2018,04,18,00,36,3.70
2018,04,18,00,37,3.70
2018,04,18,00,38,3.70
2018,04,18,00,39,3.70
2018,04,18,00,40,3.70
2018,04,18,00,41,3.70
2018,04,18,00,42,3.70
2018,04,18,00,43,3.70
2018,04,18,00,44,3.70
2018,04,18,00,45,3.70
2018,04,18,00,46,3.60
2018,04,18,00,47,3.60
2018,04,18,00,48,3.60
2018,04,18,00,49,3.60
2018,04,18,00,50,3.60
2018,04,18,00,51,3.60
2018,04,18,00,52,3.50
2018,04,18,00,53,3.50
2018,04,18,00,54,3.50
2018,04,18,00,55,3.50
2018,04,18,00,56,3.50
2018,04,18,00,57,3.50
2018,04,18,00,58,3.40
2018,04,18,00,59,3.40
2018,04,18,01,00,3.40
2018,04,18,01,01,3.40
2018,04,18,01,02,3.40
2018,04,18,01,03,3.40
2018,04,18,01,04,3.40
2018,04,18,01,05,3.40
2018,04,18,01,06,3.50
2018,04,18,01,07,3.40
2018,04,18,01,08,3.50
2018,04,18,01,09,3.50
2018,04,18,01,10,3.40
2018,04,18,01,11,3.40
2018,04,18,01,12,3.40
2018,04,18,01,13,3.40
2018,04,18,01,14,3.40
2018,04,18,01,15,3.40
2018,04,18,01,16,3.40
2018,04,18,01,17,3.40
2018,04,18,01,18,3.40
2018,04,18,01,19,3.40
2018,04,18,01,20,3.40
2018,04,18,01,21,3.40
2018,04,18,01,22,3.40
2018,04,18,01,23,3.40
2018,04,18,01,24,3.30
2018,04,18,01,25,3.30
2018,04,18,01,26,3.30
2018,04,18,01,27,3.30
2018,04,18,01,28,3.30
2018,04,18,01,29,3.30
2018,04,18,01,30,3.30
2018,04,18,01,31,3.30
2018,04,18,01,32,3.30
2018,04,18,01,33,3.30
2018,04,18,01,34,3.30
2018,04,18,01,35,3.30
2018,04,18,01,36,3.30
2018,04,18,01,37,3.30
2018,04,18,01,38,3.30
2018,04,18,01,39,3.30
2018,04,18,01,40,3.40
2018,04,18,01,41,3.40
2018,04,18,01,42,3.40
2018,04,18,01,43,3.40
2018,04,18,01,44,3.40
2018,04,18,01,45,3.40
2018,04,18,01,46,3.40
2018,04,18,01,47,3.50
2018,04,18,01,48,3.50
2018,04,18,01,49,3.50
2018,04,18,01,50,3.50
2018,04,18,01,51,3.50
2018,04,18,01,52,3.40
2018,04,18,01,53,3.40
2018,04,18,01,54,3.40
2018,04,18,01,55,3.40
2018,04,18,01,56,3.40
2018,04,18,01,57,3.40
2018,04,18,01,58,3.40
2018,04,18,01,59,3.40
2018,04,18,02,00,3.40
2018,04,18,02,01,3.40
2018,04,18,02,02,3.40
2018,04,18,02,03,3.40
2018,04,18,02,04,3.40
2018,04,18,02,05,3.40
2018,04,18,02,06,3.40
2018,04,18,02,07,3.30
2018,04,18,02,08,3.30
2018,04,18,02,09,3.30
2018,04,18,02,10,3.30
2018,04,18,02,11,3.30
2018,04,18,02,12,3.30
2018,04,18,02,13,3.30
2018,04,18,02,14,3.30
2018,04,18,02,15,3.30
2018,04,18,02,16,3.40
2018,04,18,02,17,3.40
2018,04,18,02,18,3.40
2018,04,18,02,19,3.40
2018,04,18,02,20,3.40
2018,04,18,02,21,3.40
2018,04,18,02,22,3.40
2018,04,18,02,23,3.40
2018,04,18,02,24,3.40
2018,04,18,02,25,3.30
2018,04,18,02,26,3.30
2018,04,18,02,27,3.30
2018,04,18,02,28,3.30
2018,04,18,02,29,3.30
2018,04,18,02,30,3.30
2018,04,18,02,31,3.30
2018,04,18,02,32,3.30
2018,04,18,02,33,3.30
2018,04,18,02,34,3.30
2018,04,18,02,35,3.30
2018,04,18,02,36,3.30
2018,04,18,02,37,3.30
2018,04,18,02,38,3.30
2018,04,18,02,39,3.30
2018,04,18,02,40,3.30
2018,04,18,02,41,3.30
2018,04,18,02,42,3.30
2018,04,18,02,43,3.30
2018,04,18,02,44,3.30
2018,04,18,02,45,3.30
2018,04,18,02,46,3.30
2018,04,18,02,47,3.30
2018,04,18,02,48,3.30
2018,04,18,02,49,3.30
2018,04,18,02,50,3.30
2018,04,18,02,51,3.30
2018,04,18,02,52,3.30
2018,04,18,02,53,3.20
2018,04,18,02,54,3.20
2018,04,18,02,55,3.10
2018,04,18,02,56,3.10
2018,04,18,02,57,3.10
2018,04,18,02,58,3.10
2018,04,18,02,59,3.00
2018,04,18,03,00,3.00
2018,04,18,03,01,2.90
2018,04,18,03,02,2.90
2018,04,18,03,03,2.90
2018,04,18,03,04,2.90
2018,04,18,03,05,2.90
2018,04,18,03,06,2.90
2018,04,18,03,07,2.80
2018,04,18,03,08,2.80
2018,04,18,03,09,2.80
2018,04,18,03,10,2.80
2018,04,18,03,11,2.80
2018,04,18,03,12,2.80
2018,04,18,03,13,2.80
2018,04,18,03,14,2.80
2018,04,18,03,15,2.80
2018,04,18,03,16,2.80
2018,04,18,03,17,2.80
2018,04,18,03,18,2.80
2018,04,18,03,19,2.80
2018,04,18,03,20,2.80
2018,04,18,03,21,2.80
2018,04,18,03,22,2.80
2018,04,18,03,23,2.80
2018,04,18,03,24,2.80
2018,04,18,03,25,2.80
2018,04,18,03,26,2.80
2018,04,18,03,27,2.80
2018,04,18,03,28,2.80
2018,04,18,03,29,2.80
2018,04,18,03,30,2.80
2018,04,18,03,31,2.80
2018,04,18,03,32,2.80
2018,04,18,03,33,2.80
2018,04,18,03,34,2.80
2018,04,18,03,35,2.80
2018,04,18,03,36,2.80
2018,04,18,03,37,2.80
2018,04,18,03,38,2.80
2018,04,18,03,39,2.80
2018,04,18,03,40,2.80
2018,04,18,03,41,2.80
2018,04,18,03,42,2.80
2018,04,18,03,43,2.80
2018,04,18,03,44,2.80
2018,04,18,03,45,2.80
2018,04,18,03,46,2.70
2018,04,18,03,47,2.70
2018,04,18,03,48,2.70
2018,04,18,03,49,2.70
2018,04,18,03,50,2.60
2018,04,18,03,51,2.60
2018,04,18,03,52,2.60
2018,04,18,03,53,2.50
2018,04,18,03,54,2.50
2018,04,18,03,55,2.50
2018,04,18,03,56,2.50
2018,04,18,03,57,2.40
2018,04,18,03,58,2.40
2018,04,18,03,59,2.40
2018,04,18,04,00,2.40
2018,04,18,04,01,2.40
2018,04,18,04,02,2.40
2018,04,18,04,03,2.40
2018,04,18,04,04,2.40
2018,04,18,04,05,2.40
2018,04,18,04,06,2.40
2018,04,18,04,07,2.40
2018,04,18,04,08,2.40
2018,04,18,04,09,2.50
2018,04,18,04,10,2.50
2018,04,18,04,11,2.50
2018,04,18,04,12,2.50
2018,04,18,04,13,2.50
2018,04,18,04,14,2.40
2018,04,18,04,15,2.40
2018,04,18,04,16,2.40
2018,04,18,04,17,2.30
2018,04,18,04,18,2.30
2018,04,18,04,19,2.30
2018,04,18,04,20,2.30
2018,04,18,04,21,2.30
2018,04,18,04,22,2.30
2018,04,18,04,23,2.30
2018,04,18,04,24,2.30
2018,04,18,04,25,2.30
2018,04,18,04,26,2.30
2018,04,18,04,27,2.30
2018,04,18,04,28,2.30
2018,04,18,04,29,2.30
2018,04,18,04,30,2.30
2018,04,18,04,31,2.40
2018,04,18,04,32,2.40
2018,04,18,04,33,2.40
2018,04,18,04,34,2.40
2018,04,18,04,35,2.40
2018,04,18,04,36,2.40
2018,04,18,04,37,2.30
2018,04,18,04,38,2.30
2018,04,18,04,39,2.30
2018,04,18,04,40,2.30
2018,04,18,04,41,2.30
2018,04,18,04,42,2.20
2018,04,18,04,43,2.20
2018,04,18,04,44,2.10
2018,04,18,04,45,2.10
2018,04,18,04,46,2.10
2018,04,18,04,47,2.00
2018,04,18,04,48,2.00
2018,04,18,04,49,1.90
2018,04,18,04,50,1.90
2018,04,18,04,51,1.90
2018,04,18,04,52,1.90
2018,04,18,04,53,1.90
2018,04,18,04,54,1.90
2018,04,18,04,55,1.90
2018,04,18,04,56,1.90
2018,04,18,04,57,1.90
2018,04,18,04,58,1.90
2018,04,18,04,59,1.90
2018,04,18,05,00,1.90
2018,04,18,05,01,1.90
2018,04,18,05,02,1.90
2018,04,18,05,03,1.90
2018,04,18,05,04,1.90
2018,04,18,05,05,1.90
2018,04,18,05,06,1.90
2018,04,18,05,07,1.90
2018,04,18,05,08,1.90
2018,04,18,05,09,2.00
2018,04,18,05,10,2.00
2018,04,18,05,11,2.00
2018,04,18,05,12,2.00
2018,04,18,05,13,2.10
2018,04,18,05,14,2.10
2018,04,18,05,15,2.10
2018,04,18,05,16,2.10
2018,04,18,05,17,2.20
2018,04,18,05,18,2.20
2018,04,18,05,19,2.20
2018,04,18,05,20,2.20
2018,04,18,05,21,2.30
2018,04,18,05,22,2.30
2018,04,18,05,23,2.30
2018,04,18,05,24,2.30
2018,04,18,05,25,2.30
2018,04,18,05,26,2.30
2018,04,18,05,27,2.30
2018,04,18,05,28,2.30
2018,04,18,05,29,2.20
2018,04,18,05,30,2.20
2018,04,18,05,31,2.20
2018,04,18,05,32,2.20
2018,04,18,05,33,2.20
2018,04,18,05,34,2.20
2018,04,18,05,35,2.20
2018,04,18,05,36,2.20
2018,04,18,05,37,2.10
2018,04,18,05,38,2.10
2018,04,18,05,39,2.10
2018,04,18,05,40,2.10
2018,04,18,05,41,2.10
2018,04,18,05,42,2.10
2018,04,18,05,43,2.10
2018,04,18,05,44,2.10
2018,04,18,05,45,2.10
2018,04,18,05,46,2.10
2018,04,18,05,47,2.10
2018,04,18,05,48,2.10
2018,04,18,05,49,2.10
2018,04,18,05,50,2.00
2018,04,18,05,51,2.00
2018,04,18,05,52,2.00
2018,04,18,05,53,2.00
2018,04,18,05,54,1.90
2018,04,18,05,55,1.90
2018,04,18,05,56,1.90
2018,04,18,05,57,1.90
2018,04,18,05,58,1.90
2018,04,18,05,59,1.90
2018,04,18,06,00,1.90
2018,04,18,06,01,1.90
2018,04,18,06,02,1.90
2018,04,18,06,03,1.90
2018,04,18,06,04,1.90
2018,04,18,06,05,2.00
2018,04,18,06,06,2.00
2018,04,18,06,07,2.00
2018,04,18,06,08,2.00
2018,04,18,06,09,2.10
2018,04,18,06,10,2.10
2018,04,18,06,11,2.10
2018,04,18,06,12,2.20
2018,04,18,06,13,2.20
2018,04,18,06,14,2.20
2018,04,18,06,15,2.20
2018,04,18,06,16,2.20
2018,04,18,06,17,2.20
2018,04,18,06,18,2.20
2018,04,18,06,19,2.20
2018,04,18,06,20,2.20
2018,04,18,06,21,2.30
2018,04,18,06,22,2.30
2018,04,18,06,23,2.30
2018,04,18,06,24,2.30
2018,04,18,06,25,2.30
2018,04,18,06,26,2.30
2018,04,18,06,27,2.30
2018,04,18,06,28,2.30
2018,04,18,06,29,2.30
2018,04,18,06,30,2.30
2018,04,18,06,31,2.30
2018,04,18,06,32,2.30
2018,04,18,06,33,2.30
2018,04,18,06,34,2.30
2018,04,18,06,35,2.30
2018,04,18,06,36,2.30
2018,04,18,06,37,2.30
2018,04,18,06,38,2.30
2018,04,18,06,39,2.30
2018,04,18,06,40,2.30
2018,04,18,06,41,2.40
2018,04,18,06,42,2.40
2018,04,18,06,43,2.40
2018,04,18,06,44,2.40
2018,04,18,06,45,2.40
2018,04,18,06,46,2.40
2018,04,18,06,47,2.40
2018,04,18,06,48,2.40
2018,04,18,06,49,2.50
2018,04,18,06,50,2.50
2018,04,18,06,51,2.50
2018,04,18,06,52,2.50
2018,04,18,06,53,2.50
2018,04,18,06,54,2.60
2018,04,18,06,55,2.60
2018,04,18,06,56,2.60
2018,04,18,06,57,2.60
2018,04,18,06,58,2.60
2018,04,18,06,59,2.60
2018,04,18,07,00,2.60
2018,04,18,07,01,2.60
2018,04,18,07,02,2.70
2018,04,18,07,03,2.70
2018,04,18,07,04,2.70
2018,04,18,07,05,2.70
2018,04,18,07,06,2.70
2018,04,18,07,07,2.70
2018,04,18,07,08,2.70
2018,04,18,07,09,2.70
2018,04,18,07,10,2.80
2018,04,18,07,11,2.80
2018,04,18,07,12,2.80
2018,04,18,07,13,2.80
2018,04,18,07,14,2.80
2018,04,18,07,15,2.90
2018,04,18,07,16,2.90
2018,04,18,07,17,2.90
2018,04,18,07,18,2.90
2018,04,18,07,19,3.00
2018,04,18,07,20,3.00
2018,04,18,07,21,3.00
2018,04,18,07,22,3.00
2018,04,18,07,23,3.10
2018,04,18,07,24,3.10
2018,04,18,07,25,3.10
2018,04,18,07,26,3.20
2018,04,18,07,27,3.20
2018,04,18,07,28,3.20
2018,04,18,07,29,3.20
2018,04,18,07,30,3.30
2018,04,18,07,31,3.30
2018,04,18,07,32,3.30
2018,04,18,07,33,3.40
2018,04,18,07,34,3.40
2018,04,18,07,35,3.40
2018,04,18,07,36,3.40
2018,04,18,07,37,3.50
2018,04,18,07,38,3.50
2018,04,18,07,39,3.60
2018,04,18,07,40,3.60
2018,04,18,07,41,3.60
2018,04,18,07,42,3.70
2018,04,18,07,43,3.70
2018,04,18,07,44,3.70
2018,04,18,07,45,3.70
2018,04,18,07,46,3.80
2018,04,18,07,47,3.80
2018,04,18,07,48,3.80
2018,04,18,07,49,3.80
2018,04,18,07,50,3.80
2018,04,18,07,51,3.90
2018,04,18,07,52,3.90
2018,04,18,07,53,3.90
2018,04,18,07,54,4.00
2018,04,18,07,55,4.00
2018,04,18,07,56,4.00
2018,04,18,07,57,4.10
2018,04,18,07,58,4.10
2018,04,18,07,59,4.20
2018,04,18,08,00,4.20
2018,04,18,08,01,4.20
2018,04,18,08,02,4.30
2018,04,18,08,03,4.30
2018,04,18,08,04,4.30
2018,04,18,08,05,4.40
2018,04,18,08,06,4.40
2018,04,18,08,07,4.50
2018,04,18,08,08,4.50
2018,04,18,08,09,4.60
2018,04,18,08,10,4.70
2018,04,18,08,11,4.70
2018,04,18,08,12,4.80
2018,04,18,08,13,4.90
2018,04,18,08,14,5.00
2018,04,18,08,15,5.10
2018,04,18,08,16,5.20
2018,04,18,08,17,5.30
2018,04,18,08,18,5.30
2018,04,18,08,19,5.40
2018,04,18,08,20,5.50
2018,04,18,08,21,5.50
2018,04,18,08,22,5.60
2018,04,18,08,23,5.60
2018,04,18,08,24,5.60
2018,04,18,08,25,5.70
2018,04,18,08,26,5.70
2018,04,18,08,27,5.80
2018,04,18,08,28,5.80
2018,04,18,08,29,5.90
2018,04,18,08,30,5.90
2018,04,18,08,31,6.00
2018,04,18,08,32,6.00
2018,04,18,08,33,6.10
2018,04,18,08,34,6.10
2018,04,18,08,35,6.10
2018,04,18,08,36,6.20
2018,04,18,08,37,6.20
2018,04,18,08,38,6.20
2018,04,18,08,39,6.20
2018,04,18,08,40,6.20
2018,04,18,08,41,6.30
2018,04,18,08,42,6.30
2018,04,18,08,43,6.40
2018,04,18,08,44,6.40
2018,04,18,08,45,6.40
2018,04,18,08,46,6.50
2018,04,18,08,47,6.50
2018,04,18,08,48,6.50
2018,04,18,08,49,6.50
2018,04,18,08,50,6.50
2018,04,18,08,51,6.50
2018,04,18,08,52,6.50
2018,04,18,08,53,6.60
2018,04,18,08,54,6.60
2018,04,18,08,55,6.60
2018,04,18,08,56,6.60
2018,04,18,08,57,6.60
2018,04,18,08,58,6.70
2018,04,18,08,59,6.70
2018,04,18,09,00,6.70
2018,04,18,09,01,6.70
2018,04,18,09,02,6.80
2018,04,18,09,03,6.80
2018,04,18,09,04,6.80
2018,04,18,09,05,6.80
2018,04,18,09,06,6.80
2018,04,18,09,07,6.90
2018,04,18,09,08,6.90
2018,04,18,09,09,6.90
2018,04,18,09,10,6.90
2018,04,18,09,11,6.90
2018,04,18,09,12,6.90
2018,04,18,09,13,6.90
2018,04,18,09,14,6.90
2018,04,18,09,15,6.90
2018,04,18,09,16,7.00
2018,04,18,09,17,7.00
2018,04,18,09,18,7.00
2018,04,18,09,19,7.10
2018,04,18,09,20,7.10
2018,04,18,09,21,7.10
2018,04,18,09,22,7.10
2018,04,18,09,23,7.10
2018,04,18,09,24,7.10
2018,04,18,09,25,7.10
2018,04,18,09,26,7.10
2018,04,18,09,27,7.20
2018,04,18,09,28,7.20
2018,04,18,09,29,7.20
2018,04,18,09,30,7.20
2018,04,18,09,31,7.20
2018,04,18,09,32,7.20
2018,04,18,09,33,7.20
2018,04,18,09,34,7.30
2018,04,18,09,35,7.30
2018,04,18,09,36,7.30
2018,04,18,09,37,7.30
2018,04,18,09,38,7.30
2018,04,18,09,39,7.30
2018,04,18,09,40,7.30
2018,04,18,09,41,7.40
2018,04,18,09,42,7.40
2018,04,18,09,43,7.40
2018,04,18,09,44,7.40
2018,04,18,09,45,7.40
2018,04,18,09,46,7.50
2018,04,18,09,47,7.50
2018,04,18,09,48,7.50
2018,04,18,09,49,7.60
2018,04,18,09,50,7.60
2018,04,18,09,51,7.60
2018,04,18,09,52,7.70
2018,04,18,09,53,7.80
2018,04,18,09,54,7.80
2018,04,18,09,55,7.80
2018,04,18,09,56,7.90
2018,04,18,09,57,7.90
2018,04,18,09,58,7.90
2018,04,18,09,59,7.90
2018,04,18,10,00,7.90
2018,04,18,10,01,8.00
2018,04,18,10,02,8.00
2018,04,18,10,03,8.10
2018,04,18,10,04,8.10
2018,04,18,10,05,8.20
2018,04,18,10,06,8.30
2018,04,18,10,07,8.30
2018,04,18,10,08,8.40
2018,04,18,10,09,8.40
2018,04,18,10,10,8.50
2018,04,18,10,11,8.50
2018,04,18,10,12,8.60
2018,04,18,10,13,8.60
2018,04,18,10,14,8.70
2018,04,18,10,15,8.70
2018,04,18,10,16,8.70
2018,04,18,10,17,8.80
2018,04,18,10,18,8.90
2018,04,18,10,19,9.00
2018,04,18,10,20,9.00
2018,04,18,10,21,9.10
2018,04,18,10,22,9.20
2018,04,18,10,23,9.30
2018,04,18,10,24,9.40
2018,04,18,10,25,9.40
2018,04,18,10,26,9.50
2018,04,18,10,27,9.60
2018,04,18,10,28,9.60
2018,04,18,10,29,9.70
2018,04,18,10,30,9.70
2018,04,18,10,31,9.70
2018,04,18,10,32,9.80
2018,04,18,10,33,9.80
2018,04,18,10,34,9.80
2018,04,18,10,35,9.80
2018,04,18,10,36,9.80
2018,04,18,10,37,9.90
2018,04,18,10,38,10.00
2018,04,18,10,39,10.10
2018,04,18,10,40,10.10
2018,04,18,10,41,10.20
2018,04,18,10,42,10.20
2018,04,18,10,43,10.10
2018,04,18,10,44,10.10
2018,04,18,10,45,10.00
2018,04,18,10,46,9.90
2018,04,18,10,47,9.90
2018,04,18,10,48,9.90
2018,04,18,10,49,9.80
2018,04,18,10,50,9.80
2018,04,18,10,51,9.80
2018,04,18,10,52,9.80
2018,04,18,10,53,9.80
2018,04,18,10,54,9.80
2018,04,18,10,55,9.80
2018,04,18,10,56,9.80
2018,04,18,10,57,9.80
2018,04,18,10,58,9.80
2018,04,18,10,59,9.80
2018,04,18,11,00,9.80
2018,04,18,11,01,9.80
2018,04,18,11,02,9.80
2018,04,18,11,03,9.80
2018,04,18,11,04,9.80
2018,04,18,11,05,9.70
2018,04,18,11,06,9.70
2018,04,18,11,07,9.70
2018,04,18,11,08,9.70
2018,04,18,11,09,9.60
2018,04,18,11,10,9.60
2018,04,18,11,11,9.60
2018,04,18,11,12,9.60
2018,04,18,11,13,9.60
2018,04,18,11,14,9.70
2018,04,18,11,15,9.70
2018,04,18,11,16,9.70
2018,04,18,11,17,9.70
2018,04,18,11,18,9.70
2018,04,18,11,19,9.80
2018,04,18,11,20,9.80
2018,04,18,11,21,9.90
2018,04,18,11,22,10.00
2018,04,18,11,23,10.10
2018,04,18,11,24,10.20
2018,04,18,11,25,10.20
2018,04,18,11,26,10.30
2018,04,18,11,27,10.30
2018,04,18,11,28,10.30
2018,04,18,11,29,10.30
2018,04,18,11,30,10.20
2018,04,18,11,31,10.20
2018,04,18,11,32,10.10
2018,04,18,11,33,10.10
2018,04,18,11,34,10.10
2018,04,18,11,35,10.10
2018,04,18,11,36,10.10
2018,04,18,11,37,10.20
2018,04,18,11,38,10.20
2018,04,18,11,39,10.20
2018,04,18,11,40,10.20
2018,04,18,11,41,10.30
2018,04,18,11,42,10.30
2018,04,18,11,43,10.30
2018,04,18,11,44,10.30
2018,04,18,11,45,10.40
2018,04,18,11,46,10.40
2018,04,18,11,47,10.40
2018,04,18,11,48,10.40
2018,04,18,11,49,10.40
2018,04,18,11,50,10.40
2018,04,18,11,51,10.50
2018,04,18,11,52,10.60
2018,04,18,11,53,10.60
2018,04,18,11,54,10.60
2018,04,18,11,55,10.70
2018,04,18,11,56,10.70
2018,04,18,11,57,10.70
2018,04,18,11,58,10.80
2018,04,18,11,59,10.80
2018,04,18,12,00,10.80
2018,04,18,12,01,10.80
2018,04,18,12,02,10.90
2018,04,18,12,03,10.90
2018,04,18,12,04,11.00
2018,04,18,12,05,11.00
2018,04,18,12,06,11.10
2018,04,18,12,07,11.10
2018,04,18,12,08,11.10
2018,04,18,12,09,11.10
2018,04,18,12,10,11.20
2018,04,18,12,11,11.20
2018,04,18,12,12,11.30
2018,04,18,12,13,11.40
2018,04,18,12,14,11.50
2018,04,18,12,15,11.50
2018,04,18,12,16,11.50
2018,04,18,12,17,11.50
2018,04,18,12,18,11.50
2018,04,18,12,19,11.50
2018,04,18,12,20,11.60
2018,04,18,12,21,11.50
2018,04,18,12,22,11.60
2018,04,18,12,23,11.60
2018,04,18,12,24,11.60
2018,04,18,12,25,11.60
2018,04,18,12,26,11.60
2018,04,18,12,27,11.60
2018,04,18,12,28,11.60
2018,04,18,12,29,11.70
2018,04,18,12,30,11.70
2018,04,18,12,31,11.70
2018,04,18,12,32,11.70
2018,04,18,12,33,11.80
2018,04,18,12,34,11.80
2018,04,18,12,35,11.80
2018,04,18,12,36,11.80
2018,04,18,12,37,11.80
2018,04,18,12,38,11.80
2018,04,18,12,39,11.60
2018,04,18,12,40,11.60
2018,04,18,12,41,11.60
2018,04,18,12,42,11.70
2018,04,18,12,43,11.70
2018,04,18,12,44,11.80
2018,04,18,12,45,11.80
2018,04,18,12,46,11.80
2018,04,18,12,47,11.80
2018,04,18,12,48,11.80
2018,04,18,12,49,11.80
2018,04,18,12,50,11.80
2018,04,18,12,51,11.80
2018,04,18,12,52,11.80
2018,04,18,12,53,11.80
2018,04,18,12,54,11.80
2018,04,18,12,55,11.90
2018,04,18,12,56,11.90
2018,04,18,12,57,11.90
2018,04,18,12,58,11.90
2018,04,18,12,59,11.90
2018,04,18,13,00,11.90
2018,04,18,13,01,11.90
2018,04,18,13,02,11.90
2018,04,18,13,03,11.90
2018,04,18,13,04,12.00
2018,04,18,13,05,12.00
2018,04,18,13,06,11.90
2018,04,18,13,07,11.80
2018,04,18,13,08,11.70
2018,04,18,13,09,11.70
2018,04,18,13,10,11.70
2018,04,18,13,11,11.60
2018,04,18,13,12,11.50
2018,04,18,13,13,11.40
2018,04,18,13,14,11.40
2018,04,18,13,15,11.30
2018,04,18,13,16,11.40
2018,04,18,13,17,11.40
2018,04,18,13,18,11.50
2018,04,18,13,19,11.50
2018,04,18,13,20,11.60
2018,04,18,13,21,11.70
2018,04,18,13,22,11.70
2018,04,18,13,23,11.60
2018,04,18,13,24,11.60
2018,04,18,13,25,11.60
2018,04,18,13,26,11.50
2018,04,18,13,27,11.50
2018,04,18,13,28,11.40
2018,04,18,13,29,11.30
2018,04,18,13,30,11.30
2018,04,18,13,31,11.40
2018,04,18,13,32,11.40
2018,04,18,13,33,11.40
2018,04,18,13,34,11.40
2018,04,18,13,35,11.40
2018,04,18,13,36,11.40
2018,04,18,13,37,11.40
2018,04,18,13,38,11.40
2018,04,18,13,39,11.50
2018,04,18,13,40,11.60
2018,04,18,13,41,11.60
2018,04,18,13,42,11.70
2018,04,18,13,43,11.70
2018,04,18,13,44,11.80
2018,04,18,13,45,11.80
2018,04,18,13,46,11.80
2018,04,18,13,47,11.80
2018,04,18,13,48,11.80
2018,04,18,13,49,11.80
2018,04,18,13,50,11.90
2018,04,18,13,51,12.00
2018,04,18,13,52,12.00
2018,04,18,13,53,12.10
2018,04,18,13,54,12.10
2018,04,18,13,55,12.10
2018,04,18,13,56,12.10
2018,04,18,13,57,12.10
2018,04,18,13,58,12.10
2018,04,18,13,59,12.10
2018,04,18,14,00,12.10
2018,04,18,14,01,12.10
2018,04,18,14,02,12.10
2018,04,18,14,03,12.10
2018,04,18,14,04,12.20
2018,04,18,14,05,12.20
2018,04,18,14,06,12.30
2018,04,18,14,07,12.40
2018,04,18,14,08,12.40
2018,04,18,14,09,12.40
2018,04,18,14,10,12.50
2018,04,18,14,11,12.40
2018,04,18,14,12,12.40
2018,04,18,14,13,12.40
2018,04,18,14,14,12.40
2018,04,18,14,15,12.40
2018,04,18,14,16,12.40
2018,04,18,14,17,12.50
2018,04,18,14,18,12.50
2018,04,18,14,19,12.60
2018,04,18,14,20,12.70
2018,04,18,14,21,12.70
2018,04,18,14,22,12.70
2018,04,18,14,23,12.60
2018,04,18,14,24,12.60
2018,04,18,14,25,12.60
2018,04,18,14,26,12.50
2018,04,18,14,27,12.50
2018,04,18,14,28,12.50
2018,04,18,14,29,12.50
2018,04,18,14,30,12.50
2018,04,18,14,31,12.40
2018,04,18,14,32,12.40
2018,04,18,14,33,12.20
2018,04,18,14,34,12.10
2018,04,18,14,35,12.10
2018,04,18,14,36,12.00
2018,04,18,14,37,12.00
2018,04,18,14,38,12.00
2018,04,18,14,39,12.10
2018,04,18,14,40,12.10
2018,04,18,14,41,12.20
2018,04,18,14,42,12.10
2018,04,18,14,43,12.10
2018,04,18,14,44,12.10
2018,04,18,14,45,12.10
2018,04,18,14,46,12.10
2018,04,18,14,47,12.00
2018,04,18,14,48,12.00
2018,04,18,14,49,12.00
2018,04,18,14,50,12.00
2018,04,18,14,51,12.10
2018,04,18,14,52,12.10
2018,04,18,14,53,12.10
2018,04,18,14,54,12.10
2018,04,18,14,55,12.10
2018,04,18,14,56,12.10
2018,04,18,14,57,12.10
2018,04,18,14,58,12.20
2018,04,18,14,59,12.20
2018,04,18,15,00,12.20
2018,04,18,15,01,12.20
2018,04,18,15,02,12.20
2018,04,18,15,03,12.30
2018,04,18,15,04,12.40
2018,04,18,15,05,12.50
2018,04,18,15,06,12.50
2018,04,18,15,07,12.60
2018,04,18,15,08,12.70
2018,04,18,15,09,12.70
2018,04,18,15,10,12.70
2018,04,18,15,11,12.70
2018,04,18,15,12,12.70
2018,04,18,15,13,12.80
2018,04,18,15,14,12.80
2018,04,18,15,15,12.80
2018,04,18,15,16,12.80
2018,04,18,15,17,12.80
2018,04,18,15,18,12.90
2018,04,18,15,19,12.90
2018,04,18,15,20,12.90
2018,04,18,15,21,12.90
2018,04,18,15,22,12.90
2018,04,18,15,23,12.90
2018,04,18,15,24,13.00
2018,04,18,15,25,13.10
2018,04,18,15,26,13.10
2018,04,18,15,27,13.00
2018,04,18,15,28,13.00
2018,04,18,15,29,12.90
2018,04,18,15,30,12.90
2018,04,18,15,31,12.90
2018,04,18,15,32,12.90
2018,04,18,15,33,12.90
2018,04,18,15,34,13.00
2018,04,18,15,35,13.00
2018,04,18,15,36,13.00
2018,04,18,15,37,13.00
2018,04,18,15,38,12.90
2018,04,18,15,39,12.90
2018,04,18,15,40,12.80
2018,04,18,15,41,12.70
2018,04,18,15,42,12.60
2018,04,18,15,43,12.50
2018,04,18,15,44,12.50
2018,04,18,15,45,12.50
2018,04,18,15,46,12.60
2018,04,18,15,47,12.60
2018,04,18,15,48,12.60
2018,04,18,15,49,12.70
2018,04,18,15,50,12.80
2018,04,18,15,51,12.80
2018,04,18,15,52,12.90
2018,04,18,15,53,12.90
2018,04,18,15,54,12.80
2018,04,18,15,55,12.80
2018,04,18,15,56,12.80
2018,04,18,15,57,12.70
2018,04,18,15,58,12.70
2018,04,18,15,59,12.60
2018,04,18,16,00,12.60
2018,04,18,16,01,12.60
2018,04,18,16,02,12.60
2018,04,18,16,03,12.60
2018,04,18,16,04,12.70
2018,04,18,16,05,12.70
2018,04,18,16,06,12.70
2018,04,18,16,07,12.60
2018,04,18,16,08,12.60
2018,04,18,16,09,12.60
2018,04,18,16,10,12.70
2018,04,18,16,11,12.70
2018,04,18,16,12,12.70
2018,04,18,16,13,12.70
2018,04,18,16,14,12.70
2018,04,18,16,15,12.80
2018,04,18,16,16,12.80
2018,04,18,16,17,12.80
2018,04,18,16,18,12.80
2018,04,18,16,19,12.90
2018,04,18,16,20,12.90
2018,04,18,16,21,12.90
2018,04,18,16,22,12.90
2018,04,18,16,23,12.90
2018,04,18,16,24,12.90
2018,04,18,16,25,13.00
2018,04,18,16,26,13.00
2018,04,18,16,27,13.00
2018,04,18,16,28,13.00
2018,04,18,16,29,13.10
2018,04,18,16,30,13.10
2018,04,18,16,31,13.20
2018,04,18,16,32,13.20
2018,04,18,16,33,13.20
2018,04,18,16,34,13.20
2018,04,18,16,35,13.20
2018,04,18,16,36,13.20
2018,04,18,16,37,13.10
2018,04,18,16,38,13.00
2018,04,18,16,39,13.00
2018,04,18,16,40,13.00
2018,04,18,16,41,12.90
2018,04,18,16,42,12.80
2018,04,18,16,43,12.70
2018,04,18,16,44,12.70
2018,04,18,16,45,12.70
2018,04,18,16,46,12.70
2018,04,18,16,47,12.70
2018,04,18,16,48,12.70
2018,04,18,16,49,12.80
2018,04,18,16,50,12.80
2018,04,18,16,51,12.80
2018,04,18,16,52,12.80
2018,04,18,16,53,12.80
2018,04,18,16,54,12.80
2018,04,18,16,55,12.80
2018,04,18,16,56,12.70
2018,04,18,16,57,12.70
2018,04,18,16,58,12.70
2018,04,18,16,59,12.80
2018,04,18,17,00,12.80
2018,04,18,17,01,12.80
2018,04,18,17,02,12.80
2018,04,18,17,03,12.90
2018,04,18,17,04,12.90
2018,04,18,17,05,12.90
2018,04,18,17,06,12.90
2018,04,18,17,07,12.90
2018,04,18,17,08,12.90
2018,04,18,17,09,12.90
2018,04,18,17,10,12.90
2018,04,18,17,11,12.90
2018,04,18,17,12,12.90
2018,04,18,17,13,12.80
2018,04,18,17,14,12.80
2018,04,18,17,15,12.80
2018,04,18,17,16,12.70
2018,04,18,17,17,12.70
2018,04,18,17,18,12.70
2018,04,18,17,19,12.80
2018,04,18,17,20,12.80
2018,04,18,17,21,12.80
2018,04,18,17,22,12.80
2018,04,18,17,23,12.80
2018,04,18,17,24,12.80
2018,04,18,17,25,12.80
2018,04,18,17,26,12.80
2018,04,18,17,27,12.80
2018,04,18,17,28,12.80
2018,04,18,17,29,12.80
2018,04,18,17,30,12.70
2018,04,18,17,31,12.70
2018,04,18,17,32,12.70
2018,04,18,17,33,12.70
2018,04,18,17,34,12.70
2018,04,18,17,35,12.70
2018,04,18,17,36,12.70
2018,04,18,17,37,12.70
2018,04,18,17,38,12.80
2018,04,18,17,39,12.80
2018,04,18,17,40,12.80
2018,04,18,17,41,12.90
2018,04,18,17,42,12.90
2018,04,18,17,43,12.80
2018,04,18,17,44,12.80
2018,04,18,17,45,12.80
2018,04,18,17,46,12.80
2018,04,18,17,47,12.70
2018,04,18,17,48,12.70